Regional Weather Roundup
Issued by NWS

Home | Current Version | Previous Version | Graphics & Text | Print | Product List | Glossary On
Versions: 1 2 3 4 5 6 7 8 9 10 11 12 13 14 15 16 17 18 19 20 21 22 23 24 25 26 27 28 29 30 31 32 33 34 35 36 37 38 39 40 41 42 43 44 45 46 47 48 49 50
218
ASUS43 KDMX 191206
RWRIA

WEATHER ROUNDUP FOR IOWA
NATIONAL WEATHER SERVICE DES MOINES IA
600 AM CST THU JAN 19 2017

NOTE: "FAIR" INDICATES FEW OR NO CLOUDS BELOW 12,000 FEET WITH NO
SIGNIFICANT WEATHER AND/OR OBSTRUCTIONS TO VISIBILITY.

* - THESE STATIONS ARE NOT NWS STATIONS...THUS NOT UNDER NWS
QUALITY CONTROL.  THEY ALSO DO NOT REPORT WEATHER SUCH
AS PRECIPITATION OR FOG.

IAZ001>003-012>014-020>022-031>034-043>046-191300-
   NORTHWEST IOWA

CITY           SKY/WX    TMP DP  RH WIND       PRES   REMARKS
CARROLL *      PTCLDY    32  32 100 SE6       29.81S FOG     WCI  26
CHEROKEE *     CLEAR     32  32 100 CALM      29.80S FOG
DENISON *      MOCLDY    36  34  93 CALM      29.77F FOG
LE MARS *      CLEAR     36  34  93 S7        29.79S WCI  30
ORANGE CITY *  CLEAR     34  34 100 S7        29.77S WCI  28
SHELDON *      CLEAR     36  36 100 S12       29.76S WCI  27
SIOUX CITY     CLEAR     34  32  92 SE9       29.77S WCI  27
6HR MIN TEMP:  33; 6HR MAX TEMP:  38;

SPENCER        CLEAR     34  32  92 S10       29.79S FOG     WCI  26
6HR MIN TEMP:  34; 6HR MAX TEMP:  37;

STORM LAKE *   CLEAR     34  32  93 S10       29.79F FOG     WCI  26
$$

IAZ055>058-069>071-079>083-090>094-191300-
   SOUTHWEST IOWA

CITY           SKY/WX    TMP DP  RH WIND       PRES   REMARKS
ATLANTIC *     MOCLDY    32  32 100 CALM      29.82S FOG
AUDUBON *      CLEAR     34  32  93 S7        29.82S FOG     WCI  28
CLARINDA *     MOCLDY    34  34 100 CALM      29.83F
COUNCIL BLFS * PTCLDY    34  34 100 SE8       29.79F FOG     WCI  27
CRESTON *      CLEAR     32  32 100 SE6       29.84S FOG     WCI  26
HARLAN  *      CLEAR     34  34 100 S3        29.83F FOG
LAMONI         CLOUDY    36  35  96 SE5       29.82F WCI  32
6HR MIN TEMP:  32; 6HR MAX TEMP:  36;

RED OAK *      PTCLDY    34  34 100 CALM      29.81F
SHENANDOAH *   PTCLDY    34  34 100 E5        29.81F WCI  30
$$

IAZ047>049-059>061-072>074-084-191300-
   CENTRAL IOWA

CITY           SKY/WX    TMP DP  RH WIND       PRES   REMARKS
AMES           FOG       32  32 100 SE6       29.86F VSB 1/4 WCI  26
6HR MIN TEMP:  32; 6HR MAX TEMP:  34;

ANKENY *       FOG       32  32 100 SE5       29.88S VSB 1/2 WCI  27
BOONE *        FOG       32  32 100 SE9       29.84F VSB<1/4 WCI  24
CHARITON *     CLOUDY    34  32  93 E5        29.85F WCI  30
DES MOINES     FOG       32  31  96 SE7       29.87S VSB 1/2 WCI  26
6HR MIN TEMP:  32; 6HR MAX TEMP:  37;

GRINNELL*      FOG       29  29  99 E8        29.89F VSB 1/2 WCI  22
KNOXVILLE *    FOG       30  30 100 CALM      29.86S VSB 1/4
MARSHALLTOWN   FOG       31  31 100 SE7       29.87F VSB 1/4 WCI  24
6HR MIN TEMP:  31; 6HR MAX TEMP:  33;

NEWTON *       FOG       30  30 100 E8        29.87F VSB<1/4 WCI  23
PELLA *        FOG       31  30  99 SE6       29.90S VSB 1/4 WCI  25
PERRY *        FOG       32  32 100 E7        29.84F VSB 1/4 WCI  26
$$

IAZ004>006-015-016-023>025-035-036-191300-
   NORTH CENTRAL IOWA

CITY           SKY/WX    TMP DP  RH WIND       PRES   REMARKS
ALGONA *       FOG       32  32 100 S10       29.81F VSB 1/4 WCI  24
CLARION *      FOG       32  32 100 S7        29.84F VSB 1/4 WCI  26
ESTHERVILLE    CLEAR     32  32 100 S12       29.79S FOG     WCI  23
6HR MIN TEMP:  32; 6HR MAX TEMP:  34;

FORT DODGE *   CLOUDY    34  30  86 SE5       29.84S VSB 3/4 WCI  30
MASON CITY     FOG       31  30  96 S9        29.85F VSB 1/4 WCI  23
6HR MIN TEMP:  31; 6HR MAX TEMP:  32;

FOREST CITY *  FOG       32  32 100 S7        29.84F VSB 1/4 WCI  26
WEBSTER CITY * FOG       32  32 100 SE10      29.83S VSB<1/4 WCI  24
IOWA FALLS *   SNOW      33  32  98 SE9       29.87S VSB 1/4 WCI  25
$$

IAZ007>011-017>019-026>030-037>042-050>054-066-191300-
   NORTHEAST IOWA

CITY           SKY/WX    TMP DP  RH WIND       PRES   REMARKS
CEDAR RAPIDS   FOG       30  29  96 E7        29.91F VSB 1/4 WCI  23
6HR MIN TEMP:  30; 6HR MAX TEMP:  32;

CHARLES CITY * FOG       32  32 100 S8        29.88S VSB<1/4 WCI  25
CLINTON *      CLEAR     28  27  96 E7        29.97S FOG     WCI  21
DECORAH *      FOG       30  30 100 S6        29.90R VSB 1/4 WCI  24
DUBUQUE        FOG       30  30 100 S5        29.93F VSB 1/4 WCI  25
6HR MIN TEMP:  30; 6HR MAX TEMP:  33;

MONTICELLO *   FOG       30  30 100 S5        29.93F VSB 1/4 WCI  25
OELWEIN *      FOG       32  32 100 S12       29.90F VSB<1/4 WCI  23
WATERLOO       FOG       32  31  96 S6        29.89F VSB 1/4 WCI  26
6HR MIN TEMP:  32; 6HR MAX TEMP:  33;

$$

IAZ064-065-067-068-078-191300-
   EAST CENTRAL IOWA

CITY           SKY/WX    TMP DP  RH WIND       PRES   REMARKS
DAVENPORT      CLEAR     29  27  92 SE8       29.96S FOG     WCI  21
6HR MIN TEMP:  27; 6HR MAX TEMP:  33;

IOWA CITY      FOG       29  28  96 CALM      29.95F VSB 1/4
6HR MIN TEMP:  29; 6HR MAX TEMP:  33;

MUSCATINE *    PTCLDY    27  27 100 NE3       29.95F FOG
QUAD CITIES    CLEAR     26  24  92 E6        29.95F FOG     WCI  19
6HR MIN TEMP:  26; 6HR MAX TEMP:  30;

$$

IAZ062-063-075>077-085>089-095>099-191300-
   SOUTHEAST IOWA

CITY           SKY/WX    TMP DP  RH WIND       PRES   REMARKS
BURLINGTON     PTCLDY    33  33 100 SE6       29.92F FOG     WCI  28
6HR MIN TEMP:  30; 6HR MAX TEMP:  36;

FAIRFIELD *    CLOUDY    30  30 100 E5        29.90F FOG     WCI  25
FORT MADISON * CLOUDY    37  36  93 SE5       29.93F WCI  34
KEOKUK *       CLOUDY    36  34  93 CALM      29.92F FOG
OSKALOOSA *      N/A     31  31  99 E7        29.89F FOG     WCI  24
OTTUMWA        CLOUDY    32  30  92 E7        29.88F FOG     WCI  26
6HR MIN TEMP:  28; 6HR MAX TEMP:  34;

WASHINGTON *   CLOUDY    30  30 100 E6        29.93S FOG     WCI  24
$$

ABBREVIATIONS USED IN REMARKS
   TC - TEMPERATURES IN CELSIUS
  WCI - WIND CHILL INDEX
   HX - HEAT INDEX
  VSB - VISIBILITY
$$





USA.gov is the U.S. government's official web portal to all federal, state and local government web resources and services.